Flag for United Kingdom Weather past 2 weeks in Reading, England, United Kingdom

Now
45 °F

Partly cloudy.


Feels Like: 38 °F
Forecast: N/A
Wind: 15 mph from West

Location: Benson

Current Time: Mar 1, 2015 at 9:01:04 PM

Latest Report: Mar 1, 2015 at 7:50 PM


Visibility: N/A

Pressure: 29.47 "Hg

Humidity: 76%

Dew point: 37 °F

Location of ReadingLocation

Historic Weather in Reading — Graph

°F

Reading temperature yesterday

Maximum temperature yesterday: 52 °F (at 2:50 PM)
Minimum temperature yesterday: 43 °F (at 12:50 AM)
Average temperature yesterday: 47 °F

Past Weeks' High & Low Weather Summary

 TemperatureHumidityPressure
High52 °F (Feb 25, 1:50 PM)100% (Feb 14, 10:50 PM)30.74 "Hg (Feb 14, 10:50 PM)
Low23 °F (Feb 22, 4:50 AM)43% (Feb 24, 2:50 PM)29.24 "Hg (Feb 22, 9:50 PM)
Average41 °F83%29.88 "Hg
* Reported Feb 14 6:50 PM — Mar 1 6:50 PM, Reading, Weather by CustomWeather, © 2015

Note: Actual official high and low records may vary slightly from our data, if they occured in-between our weather recording intervals... More about our weather records

Advertising

Reading weather history for previous 24 hours

 ConditionsComfort  
Time TempWeatherWind HumidityBarometerVisibility
6:50 PM
Sun, Mar 1
45 °FPassing clouds.16 mph71%29.45 "HgN/A
5:50 PM43 °FPassing clouds.13 mph81%29.45 "HgN/A
4:50 PM43 °FBroken clouds.14 mph87%29.45 "HgN/A
3:50 PM50 °FOvercast.22 mph50%29.45 "HgN/A
2:50 PM52 °FPartly sunny.21 mph50%29.50 "HgN/A
1:50 PM50 °FBroken clouds.18 mph54%29.53 "HgN/A
12:50 PM52 °FPartly sunny.15 mph47%29.56 "HgN/A
11:50 AM48 °FPassing clouds.18 mph50%29.59 "HgN/A
10:50 AM46 °FScattered clouds.20 mph62%29.59 "HgN/A
9:50 AM46 °FPassing clouds.18 mph71%29.56 "HgN/A
8:50 AM46 °FPassing clouds.15 mph71%29.56 "HgN/A
7:50 AM45 °FSunny.18 mph66%29.53 "Hg10 mi
6:50 AM43 °FPassing clouds.14 mph76%29.53 "HgN/A
5:50 AM45 °FPassing clouds.15 mph71%29.53 "HgN/A
4:50 AM45 °FClear.15 mph71%29.50 "HgN/A
3:50 AM46 °FPassing clouds.17 mph71%29.47 "HgN/A
2:50 AM46 °FPassing clouds.21 mph76%29.47 "HgN/A
1:50 AM48 °FPassing clouds.21 mph76%29.47 "HgN/A
12:50 AM50 °FPassing clouds.17 mph76%29.45 "HgN/A
11:50 PM
Sat, Feb 28
52 °FPassing clouds.18 mph72%29.42 "HgN/A
10:50 PM52 °FPassing clouds.22 mph82%29.42 "HgN/A
9:50 PM52 °FPassing clouds.15 mph88%29.42 "HgN/A
Weather by CustomWeather, © 2015

See weather overviewHow to use our weather pages